Lid_Strength_Index
3 3 3 3 3 3 4 4 5 5 6 4 3 3 3 3 5 12 13 9 7 4 6 11 11 11 10 12 11 13 19 21 19 19 18 14 15 13 12 14 14 14 14 13 11
2 3 3 3 4 4 4 4 5 5 5 5 4 4 3 3 10 15 10 4 4 4 12 13 13 12 14 13 13 16 20 19 16 15 16 14 13 14 15 15 15 14 12 11 10
3 3 4 4 4 4 3 4 4 4 4 5 5 4 3 5 14 16 6 5 5 8 12 13 13 13 14 14 14 15 18 16 14 14 13 14 13 13 15 17 15 15 13 11 9
3 2 2 3 3 3 4 4 4 4 4 5 5 5 3 10 18 15 5 6 6 10 12 14 14 15 16 17 14 17 15 14 13 13 13 14 13 15 15 15 13 13 12 10 10
3 2 2 2 3 3 4 4 3 3 4 4 5 4 9 14 15 12 7 9 11 11 14 14 15 15 16 15 15 16 15 13 13 13 12 11 13 13 14 13 12 12 11 10 11
3 2 2 2 2 3 3 3 3 3 4 4 4 5 11 17 12 12 12 12 12 12 13 13 13 12 14 16 16 15 15 15 14 14 12 13 14 14 14 13 13 12 11 11 11
3 2 2 2 2 3 3 3 3 3 4 4 5 7 12 15 12 12 12 12 13 12 13 12 12 13 15 16 14 15 16 16 15 13 13 13 16 16 14 13 14 13 12 11 12
2 2 2 2 2 3 3 3 3 3 4 5 5 10 15 12 13 12 12 13 12 12 12 11 10 12 15 14 16 17 18 21 17 14 13 14 18 15 14 15 15 13 13 12 12
2 2 2 2 3 3 3 4 4 4 4 5 10 13 16 10 14 13 13 14 14 12 12 10 12 15 15 19 21 20 24 23 19 14 14 15 18 15 14 15 15 14 13 13 14
2 2 3 3 4 2 3 4 4 5 7 8 11 15 14 15 13 13 13 13 14 14 13 14 16 18 19 21 25 23 23 21 21 17 16 17 17 15 14 15 16 14 14 15 15
2 3 3 4 3 3 6 10 12 12 11 14 14 15 14 13 13 14 13 14 14 15 19 16 19 22 21 20 19 20 21 22 20 17 17 18 18 15 15 16 16 15 15 16 15
2 3 4 5 4 4 8 11 11 11 12 11 13 14 14 14 16 15 13 16 16 19 17 18 22 20 18 18 19 20 21 22 20 17 18 18 19 18 16 17 16 16 16 16 16
2 3 5 6 4 8 9 10 8 8 12 11 14 14 15 14 16 16 15 16 18 19 19 20 19 17 17 19 20 20 20 22 21 19 16 18 21 22 17 16 14 14 15 16 16
2 4 6 6 7 9 11 8 7 7 13 13 16 15 15 14 16 14 14 16 18 20 19 19 18 18 20 20 20 21 18 19 20 20 25 18 26 23 19 18 16 16 16 17 16
2 4 6 6 9 10 9 8 7 8 20 17 17 14 15 16 16 16 13 15 19 19 19 20 20 20 21 20 19 20 18 19 18 20 22 22 25 24 21 20 18 17 17 17 17
3 5 6 8 8 9 8 7 8 14 19 18 16 17 17 16 16 14 15 15 15 18 19 20 18 19 20 18 18 18 19 19 20 22 29 26 26 25 26 23 19 18 18 18 17
5 6 7 8 9 8 7 8 14 18 16 18 18 16 17 17 18 17 19 20 21 21 22 21 21 19 18 21 19 20 23 31 30 32 32 25 23 25 23 20 23 21 20 18 17
6 6 8 8 7 7 8 11 17 14 14 16 16 15 19 19 19 18 19 21 20 21 24 23 24 21 18 20 22 21 23 30 31 33 29 21 28 23 19 18 21 21 21 19 18
6 8 8 8 7 7 9 15 15 14 15 16 16 16 16 19 18 19 20 21 20 20 23 25 24 19 18 19 20 22 26 22 30 29 29 25 23 21 19 19 18 19 20 20 20
8 9 10 8 7 8 13 13 12 14 15 15 15 16 20 20 18 19 20 19 20 19 19 24 26 20 19 19 19 21 20 28 29 35 36 29 27 25 24 22 20 20 21 21 20
6 10 10 8 7 11 15 13 14 15 14 14 15 16 18 19 20 20 20 19 18 19 19 22 25 22 21 23 23 22 27 23 25 29 34 33 28 27 27 25 24 22 22 22 22
6 10 9 8 13 14 14 13 14 16 14 15 14 16 16 19 20 21 20 19 17 18 21 20 25 27 24 21 20 21 22 24 30 32 32 31 27 22 25 25 25 23 23 22 21
10 13 9 9 15 15 16 15 15 16 16 16 16 16 17 19 20 21 20 17 17 18 21 20 25 27 26 24 22 22 22 24 28 32 35 32 27 21 23 24 23 27 24 23 22
10 14 13 12 13 14 16 15 16 15 15 16 16 16 19 20 20 22 21 18 17 17 16 18 25 24 26 26 25 27 26 23 26 30 34 29 27 24 22 24 23 22 25 24 23
8 11 12 16 15 15 14 14 16 18 16 16 18 18 19 22 21 21 21 20 18 16 19 21 24 25 24 23 23 23 27 28 29 27 29 30 29 24 24 26 26 26 25 24 23
9 11 11 13 13 14 12 14 16 17 17 18 18 18 19 21 19 21 22 21 21 20 22 21 23 24 26 22 22 23 22 23 26 24 25 27 25 22 24 25 25 25 25 24 23
7 7 9 12 14 14 14 13 14 15 16 15 16 18 19 18 18 19 19 20 20 21 23 23 24 26 27 24 27 27 28 25 25 27 25 26 24 22 23 21 24 24 27 27 24